This is the latest recevied weather packets stored in our database for station/object IZ1UQG-1. If no packets are shown the sender has not sent any weather packets the latest 10 day(s).
| Time | Temp. | Humidity | Pressure | Rain* | Wind** | Luminosity | Snow |
|---|---|---|---|---|---|---|---|
| 1777849138 | 18.33° C | 48% | 1017.2 hPa | 15.75 mm | - | - | - |
| 1777848838 | 18.33° C | 48% | 1017.2 hPa | 60.2 mm | - | - | - |
| 1777848538 | 18.33° C | 48% | 1017.3 hPa | 53.59 mm | - | - | - |
| 1777848238 | 18.33° C | 48% | 1017.1 hPa | 60.2 mm | - | - | - |
| 1777847938 | 18.33° C | 48% | 1017.2 hPa | 87.12 mm | - | - | - |
| 1777847638 | 18.89° C | 47% | 1017.1 hPa | 72.64 mm | - | - | - |
| 1777847338 | 18.89° C | 47% | 1017 hPa | 69.09 mm | - | - | - |
| 1777847039 | 18.89° C | 47% | 1016.9 hPa | 71.63 mm | - | - | - |
| 1777846739 | 18.89° C | 47% | 1017 hPa | 86.61 mm | - | - | - |
| 1777846439 | 18.89° C | 47% | 1016.9 hPa | 71.12 mm | - | - | - |
| 1777846139 | 18.89° C | 47% | 1016.8 hPa | 56.64 mm | - | - | - |
| 1777845839 | 18.89° C | 47% | 1016.8 hPa | 51.56 mm | - | - | - |
| 1777845538 | 18.89° C | 47% | 1016.9 hPa | 20.83 mm | - | - | - |
| 1777845239 | 18.89° C | 47% | 1016.8 hPa | 61.21 mm | - | - | - |
| 1777844938 | 18.89° C | 46% | 1016.6 hPa | 23.62 mm | - | - | - |
| 1777844639 | 19.44° C | 46% | 1016.7 hPa | 24.13 mm | - | - | - |
| 1777844339 | 19.44° C | 46% | 1016.5 hPa | 1.27 mm | - | - | - |
| 1777844039 | 19.44° C | 46% | 1016.5 hPa | 23.11 mm | - | - | - |
| 1777843739 | 19.44° C | 46% | 1016.8 hPa | 8.89 mm | - | - | - |
| 1777843439 | 19.44° C | 46% | 1016.7 hPa | 248.92 mm | - | - | - |
| 1777843139 | 19.44° C | 46% | 1016.6 hPa | 218.44 mm | - | - | - |
| 1777842839 | 19.44° C | 46% | 1016.6 hPa | 252.22 mm | - | - | - |
| 1777842539 | 20° C | 46% | 1016.7 hPa | 243.84 mm | - | - | - |
| 1777842239 | 20° C | 45% | 1016.5 hPa | 224.79 mm | - | - | - |
| 1777841939 | 20° C | 45% | 1016.3 hPa | 168.66 mm | - | - | - |
* Rain latest hour (hover to see other rain measurements)
** Current wind speed in m/s (hover to see current wind gust speed)